Location: Nians�bougou
(13.2321°N, 4.9818°W)
Time: 14:19:16
(UTC+00:00)

ATLAS 2A CENTAUR R/B - Pass Details

Date: 18 February 2020
Orbit: 256 x 15930 km, 26.9° (Epoch: 29 March)

Event Time Altitude Azimuth Distance (km) Brightness Sun altitude
Rises 04:21:55 0° 293° (WNW) 17,323 8.9 -34.5°
Enters shadow 04:23:24 - 293° (WNW) 17,091 8.9 -34.1°
Exits shadow 05:07:43 26° 292° (WNW) 6,777 6.7 -23.4°
Maximum altitude 05:22:38 75° 212° (SSW) 1,848 4.3 -19.8°
Drops below altitude 10° 05:28:23 10° 126° (SE) 2,531 6.1 -18.4°
Sets 05:29:48 0° 124° (SE) 3,079 6.8 -18.1°
